Change the Weather History Date:

Monday, September 2, 2013

  Actual Average Record
Temperature  
Mean Temperature 53 °F -  
Max Temperature 55 °F 53 °F 59 °F (1988)
Min Temperature 51 °F 46 °F 41 °F (1982)
Degree Days  
Heating Degree Days 12    
Growing Degree Days 3 (Base 50)    
Moisture  
Dew Point 53 °F    
Average Humidity 95    
Maximum Humidity 100    
Minimum Humidity 88    
Precipitation  
Precipitation 0.00 in - - ()
Sea Level Pressure  
Sea Level Pressure 29.29 in    
Wind  
Wind Speed 22 mph (South)    
Max Wind Speed 32 mph    
Max Gust Speed 39 mph    
Visibility 8 miles    
Events      
Averages and records for this station are not official NWS values.
T = Trace of Precipitation, MM = Missing Value Source: NWS Daily Summary

Daily Weather History Graph

Daily Weather History Graph

Search for Another Location

Airport or City:

Trip Planner

Search our weather history database for the weather conditions in past years. The results will help you decide how hot, cold, wet, or windy it might be!

Date:

Astronomy

Sep. 02, 2013 Rise Set
Actual Time 7:50 AM AKDT 9:31 PM AKDT
Civil Twilight 7:12 AM AKDT 10:09 PM AKDT
Nautical Twilight 6:24 AM AKDT 10:57 PM AKDT
Astronomical Twilight 5:29 AM AKDT 11:51 PM AKDT
Moon 5:02 AM AKDT (9/2) 8:01 PM AKDT (9/2)
Length of Visible Light 14h 57m
Length of Day
13h 40m
Waning Crescent, 7% of the Moon is Illuminated
Sep 2
Waning Crescent
Sep 5
New
Sep 12
First Quarter
Sep 19
Full
Sep 26
Last Quarter

Hourly Weather History & Observations

Time (AKDT) Temp. Dew Point Humidity Pressure Visibility Wind Dir Wind Speed Gust Speed Precip Events Conditions
12:16 AM 55.4 °F 53.6 °F 94% 29.37 in 5.0 mi South 29.9 mph 38.0 mph N/A   Overcast
12:36 AM 55.4 °F 53.6 °F 94% 29.36 in 3.0 mi SSE 32.2 mph 39.1 mph N/A   Overcast
12:56 AM 55.4 °F 53.6 °F 94% 29.37 in 3.0 mi SSE 27.6 mph 35.7 mph N/A   Overcast
1:16 AM 55.4 °F 53.6 °F 94% 29.36 in 1.8 mi SSE 28.8 mph 39.1 mph N/A   Overcast
1:36 AM 55.4 °F 55.4 °F 100% 29.35 in 2.0 mi South 26.5 mph 32.2 mph N/A   Overcast
1:56 AM 55.4 °F 55.4 °F 100% 29.35 in 5.0 mi South 24.2 mph 29.9 mph N/A   Overcast
2:16 AM 55.4 °F 53.6 °F 94% 29.34 in 4.0 mi SSE 23.0 mph - N/A   Overcast
2:36 AM 55.4 °F 55.4 °F 100% 29.33 in 4.0 mi SSE 20.7 mph 29.9 mph N/A   Overcast
2:56 AM 55.4 °F 55.4 °F 100% 29.32 in 3.0 mi SSE 21.9 mph 28.8 mph N/A   Overcast
3:16 AM 55.4 °F 55.4 °F 100% 29.32 in 3.0 mi South 23.0 mph 32.2 mph N/A   Overcast
3:36 AM 55.4 °F 53.6 °F 94% 29.32 in 4.0 mi South 21.9 mph 28.8 mph N/A   Overcast
3:56 AM 55.4 °F 55.4 °F 100% 29.32 in 3.0 mi South 19.6 mph 23.0 mph N/A   Overcast
4:16 AM 55.4 °F 55.4 °F 100% 29.32 in 4.0 mi South 17.3 mph - N/A   Overcast
4:36 AM 53.6 °F 53.6 °F 100% 29.32 in 8.0 mi SSE 12.7 mph - N/A   Overcast
4:56 AM 53.6 °F 53.6 °F 100% 29.32 in 5.0 mi SSE 15.0 mph - N/A   Overcast
5:16 AM 53.6 °F 53.6 °F 100% 29.32 in 3.0 mi SSE 13.8 mph - N/A   Overcast
5:36 AM 53.6 °F 53.6 °F 100% 29.32 in 8.0 mi SSE 15.0 mph 18.4 mph N/A   Overcast
5:56 AM 53.6 °F 53.6 °F 100% 29.32 in 10.0 mi SSE 10.4 mph - N/A   Overcast
6:16 AM 53.6 °F 53.6 °F 100% 29.32 in 9.0 mi South 13.8 mph - N/A   Overcast
6:36 AM 53.6 °F 53.6 °F 100% 29.32 in 10.0 mi South 12.7 mph - N/A   Overcast
6:56 AM 53.6 °F 53.6 °F 100% 29.32 in 10.0 mi South 13.8 mph - N/A   Overcast
7:16 AM 53.6 °F 53.6 °F 100% 29.32 in 10.0 mi South 10.4 mph - N/A   Overcast
7:36 AM 51.8 °F 51.8 °F 100% 29.32 in 10.0 mi South 9.2 mph - N/A   Overcast
7:56 AM 51.8 °F 50.0 °F 94% 29.32 in 10.0 mi South 10.4 mph - N/A   Mostly Cloudy
8:16 AM 51.8 °F 51.8 °F 100% 29.33 in 10.0 mi South 13.8 mph - N/A   Mostly Cloudy
8:36 AM 51.8 °F 50.0 °F 94% 29.32 in 10.0 mi South 15.0 mph - N/A   Mostly Cloudy
8:56 AM 51.8 °F 50.0 °F 94% 29.33 in 10.0 mi South 12.7 mph - N/A   Scattered Clouds
9:16 AM 51.8 °F 50.0 °F 94% 29.31 in 10.0 mi SSE 6.9 mph - N/A   Scattered Clouds
9:36 AM 51.8 °F 50.0 °F 94% 29.32 in 10.0 mi South 12.7 mph - N/A   Scattered Clouds
9:56 AM 51.8 °F 50.0 °F 94% 29.31 in 10.0 mi South 11.5 mph - N/A   Mostly Cloudy
10:16 AM 53.6 °F 51.8 °F 94% 29.32 in 10.0 mi South 15.0 mph - N/A   Mostly Cloudy
10:36 AM 53.6 °F 51.8 °F 94% 29.32 in 10.0 mi South 16.1 mph - N/A   Mostly Cloudy
10:56 AM 53.6 °F 51.8 °F 94% 29.31 in 10.0 mi South 16.1 mph - N/A   Scattered Clouds
11:16 AM 53.6 °F 51.8 °F 94% 29.31 in 10.0 mi SSE 13.8 mph - N/A   Scattered Clouds
11:36 AM 53.6 °F 51.8 °F 94% 29.31 in 10.0 mi SSE 17.3 mph - N/A   Scattered Clouds
11:56 AM 53.6 °F 51.8 °F 94% 29.31 in 10.0 mi South 18.4 mph - N/A   Mostly Cloudy
12:16 PM 53.6 °F 51.8 °F 94% 29.31 in 10.0 mi South 18.4 mph - N/A   Mostly Cloudy
12:36 PM 53.6 °F 51.8 °F 94% 29.31 in 10.0 mi South 18.4 mph 25.3 mph N/A   Mostly Cloudy
12:56 PM 53.6 °F 51.8 °F 94% 29.30 in 10.0 mi South 24.2 mph 29.9 mph N/A   Mostly Cloudy
1:16 PM 53.6 °F 51.8 °F 94% 29.29 in 10.0 mi South 25.3 mph 31.1 mph N/A   Mostly Cloudy
1:36 PM 53.6 °F 51.8 °F 94% 29.29 in 9.0 mi South 26.5 mph 34.5 mph N/A   Overcast
1:56 PM 53.6 °F 51.8 °F 94% 29.28 in 10.0 mi South 27.6 mph 39.1 mph N/A   Overcast
2:16 PM 53.6 °F 51.8 °F 94% 29.27 in 9.0 mi South 28.8 mph 38.0 mph N/A   Overcast
2:36 PM 53.6 °F 53.6 °F 100% 29.27 in 8.0 mi South 26.5 mph 34.5 mph N/A   Mostly Cloudy
2:56 PM 55.4 °F 53.6 °F 94% 29.26 in 8.0 mi South 28.8 mph 34.5 mph N/A   Mostly Cloudy
3:16 PM 55.4 °F 53.6 °F 94% 29.25 in 8.0 mi South 32.2 mph 35.7 mph N/A   Mostly Cloudy
3:36 PM 55.4 °F 51.8 °F 88% 29.25 in 7.0 mi South 28.8 mph 34.5 mph N/A   Mostly Cloudy
3:56 PM 55.4 °F 51.8 °F 88% 29.26 in 9.0 mi South 27.6 mph 36.8 mph N/A   Overcast
4:16 PM 55.4 °F 53.6 °F 94% 29.25 in 7.0 mi South 28.8 mph 35.7 mph N/A   Mostly Cloudy
4:36 PM 55.4 °F 51.8 °F 88% 29.25 in 8.0 mi South 24.2 mph 32.2 mph N/A   Mostly Cloudy
4:56 PM 55.4 °F 51.8 °F 88% 29.24 in 8.0 mi South 28.8 mph 33.4 mph N/A   Mostly Cloudy
5:16 PM 53.6 °F 53.6 °F 100% 29.24 in 9.0 mi South 27.6 mph 34.5 mph N/A   Mostly Cloudy
5:36 PM 53.6 °F 53.6 °F 100% 29.24 in 9.0 mi South 26.5 mph - N/A   Mostly Cloudy
5:56 PM 53.6 °F 51.8 °F 94% 29.24 in 10.0 mi South 23.0 mph - N/A   Mostly Cloudy
6:16 PM 53.6 °F 51.8 °F 94% 29.23 in 3.0 mi South 25.3 mph 31.1 mph N/A   Overcast
6:36 PM 53.6 °F 51.8 °F 94% 29.23 in 5.0 mi South 24.2 mph 32.2 mph N/A   Overcast
6:56 PM 53.6 °F 51.8 °F 94% 29.23 in 9.0 mi South 25.3 mph 34.5 mph N/A   Overcast
7:16 PM 53.6 °F 51.8 °F 94% 29.23 in 9.0 mi South 23.0 mph 28.8 mph N/A   Overcast
7:36 PM 53.6 °F 51.8 °F 94% 29.23 in 9.0 mi South 21.9 mph - N/A   Overcast
7:56 PM 53.6 °F 51.8 °F 94% 29.23 in 9.0 mi South 19.6 mph 28.8 mph N/A   Overcast
8:16 PM 53.6 °F 51.8 °F 94% 29.23 in 5.0 mi South 19.6 mph - N/A   Overcast
8:36 PM 53.6 °F 51.8 °F 94% 29.23 in 7.0 mi South 20.7 mph - N/A   Overcast
8:56 PM 53.6 °F 51.8 °F 94% 29.23 in 7.0 mi South 20.7 mph 26.5 mph N/A   Overcast
9:16 PM 53.6 °F 51.8 °F 94% 29.23 in 6.0 mi South 23.0 mph - N/A   Overcast
9:36 PM 53.6 °F 51.8 °F 94% 29.23 in 6.0 mi South 23.0 mph - N/A   Overcast
9:56 PM 53.6 °F 51.8 °F 94% 29.23 in 7.0 mi South 21.9 mph 26.5 mph N/A   Overcast
10:16 PM 53.6 °F 51.8 °F 94% 29.23 in 8.0 mi South 20.7 mph 25.3 mph N/A   Overcast
10:36 PM 53.6 °F 51.8 °F 94% 29.24 in 9.0 mi South 19.6 mph - N/A   Overcast
10:56 PM 53.6 °F 51.8 °F 94% 29.23 in 8.0 mi South 23.0 mph 29.9 mph N/A   Overcast
11:16 PM 53.6 °F 51.8 °F 94% 29.23 in 8.0 mi South 20.7 mph - N/A   Overcast
11:36 PM 53.6 °F 51.8 °F 94% 29.22 in 5.0 mi South 23.0 mph - N/A   Overcast
11:56 PM 53.6 °F 51.8 °F 94% 29.21 in 4.0 mi South 25.3 mph 29.9 mph N/A   Overcast